sat.trackr.live / text

‹ back to catalog

ION SCV-013

NORAD 58300 · 2023-174AW

PAYLOAD ACTIVE UNKNOWN

§ Identity

Operator
Country
IT
Launch date
2023-11-11
Launch site
AFWTR
Launch vehicle
Mass (kg)
RCS (m²)

External: N2YO · Heavens-Above · Gunter

§ Orbital elements

Epoch: 2026-09-21T22:47:02.402304Z

Period
95.65 min
Inclination
97.6060°
Eccentricity
0.0096713
Mean motion
15.05446413 rev/d
Perigee alt
483.1 km
Apogee alt
617.1 km
Semi-major
6,928.3 km
B*
6.8276e-5
RAAN
318.7178°
Arg perigee
226.3815°
Mean anomaly
132.9360°
Rev number
15,609

§ Raw data

ION SCV-0131 58300U 23174AW  26264.94933336  .00001017  00000+0  68276-4 0  99942 58300  97.6060 318.7178 0096713 226.3815 132.9360 15.05446413156092

JSON: /api/v1/satellites/58300 · /tle

For live sub-satellite position, see the globe view (requires WebGL).

§ Visibility from observer

Set your observer location to see the next 7 days of passes ≥ 10°. The values pass through the URL so the page stays shareable.

No JS? Fill the form by hand. The geolocation button needs JavaScript.

§ Radio — SatNOGS DB

ModeDescriptionDownlinkUplink
FSK AX.100 Mode 5 Mode U - FSK1k2 AX.100 401.415 MHz
BPSK S-band telemetry 2.266 GHz

2 transmitters · refreshed weekly from db.satnogs.org